Location: Ostrava
(49.8330°N, 18.2830°E)
Time: 21:17:41
(UTC+01:00)

NOAA 19 - Visible Passes

Search period start: 04 March 2015 00:00
Search period end: 14 March 2015 00:00
Orbit: 842 x 864 km, 99.0° (Epoch: 04 March)

Date Brightness Start Highest point End Pass type
(mag) Time Alt. Az. Time Alt. Az. Time Alt. Az.
04 Mar 7.5 01:35:57 10° NNE 01:37:42 19° NE 01:37:42 19° NE visible
04 Mar 6.5 03:16:39 10° N 03:19:45 30° NNW 03:19:45 30° NNW visible
05 Mar 7.6 01:24:56 10° NE 01:26:30 17° NE 01:26:30 17° NE visible
05 Mar 6.4 03:05:23 10° N 03:08:33 33° NNW 03:08:33 33° NNW visible
05 Mar 7.2 04:48:57 10° NNW 04:50:17 11° NW 04:50:36 11° NW visible
06 Mar 7.7 01:13:59 10° NE 01:15:17 15° NE 01:15:17 15° NE visible
06 Mar 6.3 02:54:07 10° N 02:57:21 35° N 02:57:21 35° N visible
06 Mar 7.1 04:36:52 10° NNW 04:39:17 13° NW 04:39:24 13° NW visible
07 Mar 7.8 01:03:07 10° NE 01:04:06 13° NE 01:04:06 13° NE visible
07 Mar 6.3 02:42:53 10° NNE 02:46:08 37° N 02:46:08 37° N visible
07 Mar 6.9 04:25:10 10° NNW 04:28:12 15° NW 04:28:12 15° NW visible
08 Mar 7.9 00:52:23 10° NE 00:52:53 11° NE 00:52:53 11° NE visible
08 Mar 6.4 02:31:40 10° NNE 02:34:57 38° NNE 02:34:57 38° NNE visible
08 Mar 6.8 04:13:37 10° NNW 04:17:00 18° NW 04:17:00 18° NW visible
09 Mar 6.4 02:20:29 10° NNE 02:23:45 37° NNE 02:23:45 37° NNE visible
09 Mar 6.6 04:02:09 10° N 04:05:48 21° NW 04:05:48 21° NW visible
10 Mar 6.6 02:09:19 10° NNE 02:12:32 36° NE 02:12:32 36° NE visible
10 Mar 6.5 03:50:44 10° N 03:54:36 25° NW 03:54:36 25° NW visible
11 Mar 6.7 01:58:11 10° NNE 02:01:20 33° NE 02:01:20 33° NE visible
11 Mar 6.3 03:39:21 10° N 03:43:24 29° NW 03:43:24 29° NW visible
12 Mar 6.9 01:47:04 10° NNE 01:50:08 30° NE 01:50:08 30° NE visible
12 Mar 6.1 03:28:01 10° N 03:32:11 33° NW 03:32:11 33° NW visible
13 Mar 7.0 01:36:00 10° NNE 01:38:56 26° NE 01:38:56 26° NE visible
13 Mar 5.9 03:16:42 10° N 03:20:59 39° NW 03:20:59 39° NW visible
